Orbital Elements at Epoch 2459200.5 (2020-Dec-17.0) TDB
Reference: JPL 26 (heliocentric ecliptic J2000)
Element | Value | Uncertainty (1-sigma) | Units |
e | .04406974486676044 | 4.6885e-08 | |
a | 3.012865428113259 | 2.5547e-08 | au |
q | 2.880089217378424 | 1.3926e-07 | au |
i | 10.87650206955612 | 4.7885e-06 | deg |
node | 74.10998074030461 | 2.3944e-05 | deg |
peri | 275.3581151112902 | 5.8357e-05 | deg |
M | 110.8541312239429 | 5.3252e-05 | deg |
tp | 2458612.310307213443 (2019-May-08.81030721) | 0.00028334 | TDB |
period | 1910.152441458366 5.23 | 2.4295e-05 6.652e-08 | d yr |
n | .1884666334405994 | 2.3971e-09 | deg/d |
Q | 3.145641638848093 | 2.6673e-08 | au |
|
| | Orbit Determination Parameters
Additional Information
|